#timestamp,LO_Frequency,Hit 
1501923615.5,286047002.4,N
1501923635.3,286047002.3,N
1501923655.2,286047001.6,N
1501923675.9,286047005.8,N
1501923695.7,286047006.8,N
1501923715.6,286047005.2,N
1501923735.4,286047007.5,N
1501923755.2,286047008.4,N
1501923775.1,286047010.6,N
1501923776.0,286047010.6,N
1501923795.8,286047006.7,N
1501923815.6,286047003.9,N
1501923835.5,286047000.5,N
1501923855.3,286046996.2,N
1501923875.1,286046993.4,N
1501923895.8,286046994.8,N
1501923915.7,286046993.2,N
1501923935.5,286046992.8,N
1501923955.3,286046990.4,N
1501923975.2,286046986.9,N
1501923995.9,286046987.9,N
1501924015.7,286046989.3,N
1501924035.6,286046987.3,N
1501924055.4,286046989.3,N
1501924075.2,286046988.8,N
1501924095.1,286046992.6,N
1501924096.0,286046992.6,N
1501924115.8,286046992.1,N
1501924135.6,286046992.6,N
1501924155.5,286046990.1,N
1501924175.3,286046991.4,N
1501924195.1,286046993.2,N
1501924215.9,286046992.6,N
1501924235.7,286046994.0,N
1501924255.5,286046998.0,N
1501924275.3,286047000.7,N
1501924295.2,286047002.1,N
1501924315.0,286047000.2,N
1501924315.9,286047000.2,N
1501924335.7,286047005.1,N
1501924355.6,286047007.5,N
1501924375.4,286047005.1,N
1501924395.2,286047003.6,N
1501924415.1,286047001.5,N
1501924416.0,286047001.5,N
1501924435.8,286047001.7,N
1501924455.6,286047001.9,N
1501924475.5,286047004.1,N
1501924495.3,286047010.8,N
1501924515.1,286047010.5,N
1501924535.9,286047016.2,N
1501924555.7,286047021.8,N
1501924575.5,286047020.5,N
1501924595.4,286047019.5,N
1501924615.2,286047020.5,N
1501924635.0,286047017.7,N
1501924635.9,286047017.7,N
1501924655.8,286047019.2,N
1501924675.6,286047020.2,N
1501924695.4,286047022.1,N
1501924715.2,286047023.7,N
1501924735.1,286047027.9,N
1501924736.0,286047027.9,N
1501924755.8,286047027.5,N
1501924775.6,286047027.8,N
1501924795.5,286047029.3,N
1501924815.3,286047027.0,N
1501924835.1,286047028.7,N
1501924855.9,286047032.0,P
1501924875.7,286047018.0,N
1501924895.5,286047016.5,N
1501924915.4,286047012.5,N
1501924935.2,286047014.8,N
1501924955.0,286047014.7,N
1501924955.9,286047014.7,N
1501924975.8,286047018.5,P
1501924995.6,286047004.3,P
1501925015.4,286047001.5,N
1501925035.3,286047001.9,N
1501925055.1,286047006.7,N
1501925075.8,286047010.3,N
1501925095.7,286047011.2,N
1501925115.5,286047009.9,N
1501925135.3,286047007.1,N
1501925155.2,286047007.4,N
1501925175.9,286047008.7,N
1501925195.7,286047005.5,N
1501925215.6,286046999.4,N
1501925235.4,286046994.7,N
1501925255.2,286046987.0,N
1501925275.1,286046983.7,N
1501925276.0,286046983.7,N
1501925295.8,286046984.0,N
1501925315.6,286046985.2,N
1501925335.4,286046986.6,N
1501925355.3,286046986.4,N
1501925375.1,286046987.3,N
1501925395.8,286046988.7,N
1501925415.7,286046989.0,N
1501925435.5,286046992.1,N
1501925455.3,286046993.8,N
1501925475.2,286046994.9,N
1501925495.9,286046997.0,N
1501925515.7,286046998.5,N
1501925535.6,286047002.5,N
1501925555.4,286047002.2,N
1501925575.2,286047000.6,N
1501925595.1,286046997.5,N
1501925596.0,286046997.5,N
1501925615.8,286046991.9,N
1501925635.6,286046990.9,N
1501925655.4,286046988.4,N
1501925675.3,286046986.7,N
1501925695.1,286046984.4,N
1501925715.8,286046987.7,N
1501925735.7,286046987.6,N
1501925755.5,286046991.3,N
1501925775.3,286046991.9,N
1501925795.2,286046994.2,N
1501925815.9,286046990.2,N
1501925835.7,286046994.0,N
1501925855.6,286046995.6,N
1501925875.4,286046998.9,N
1501925895.2,286046999.7,N
1501925915.1,286046999.8,N
1501925916.0,286046999.8,N
1501925935.8,286047005.4,N
1501925955.6,286047005.7,N
1501925975.5,286047006.9,N
1501925995.3,286047006.6,N
1501926015.1,286047007.2,N
1501926035.9,286047008.9,N
1501926055.7,286047012.3,N
1501926075.5,286047012.4,N
1501926095.3,286047011.2,N
1501926115.2,286047011.7,N
1501926135.0,286047010.5,N
1501926135.9,286047010.5,N
1501926155.7,286047009.5,N
1501926175.6,286047013.3,N
1501926195.4,286047009.7,N
1501926215.2,286047008.5,N
1501926235.1,286047005.5,N
1501926236.0,286047005.5,N
1501926255.8,286047007.3,N
1501926275.6,286047008.7,N
1501926295.5,286047004.7,N
1501926315.3,286046996.5,N
1501926335.1,286046992.8,N
1501926355.9,286046987.9,N
1501926375.7,286046984.4,N
1501926395.5,286046984.7,N
1501926415.4,286046984.6,N
1501926435.2,286046986.4,N
1501926455.0,286046986.1,N
1501926455.9,286046986.1,N
1501926475.8,286046985.5,N
1501926495.6,286046988.3,N
1501926515.4,286046990.4,N
1501926535.3,286046993.2,N
1501926555.1,286046988.2,N
1501926556.0,286046988.2,N
1501926575.8,286046983.9,N
1501926595.7,286046984.3,N
1501926615.5,286046985.8,N
1501926635.3,286046987.4,N
1501926655.1,286046989.1,N
1501926675.9,286046992.8,N
1501926695.7,286046994.8,N
1501926715.5,286046995.2,N
1501926735.4,286046995.6,N
1501926755.2,286046999.1,N
1501926775.0,286046993.4,N
1501926775.9,286046993.4,N
1501926795.8,286046991.0,N
1501926815.6,286046985.6,N
1501926835.4,286046983.5,P
1501926855.3,286046990.1,P
1501926875.1,286046989.3,P
1501926895.8,286046985.3,P
1501926915.7,286046998.6,N
1501926935.5,286046998.7,N
1501926955.3,286046997.4,N
1501926975.2,286046994.7,N
1501926995.9,286046988.7,N
1501927015.7,286046987.6,N
1501927035.6,286046984.2,P
1501927055.4,286046990.2,N
1501927075.2,286046987.7,P
1501927095.1,286046984.1,P
1501927096.0,286046984.1,P
1501927115.8,286046999.1,N
1501927135.6,286046999.0,N
1501927155.5,286046997.1,N
1501927175.3,286046996.1,N
1501927195.1,286046991.8,N
